Location: Unspecified
(0.0000°N, 0.0000°E)
Time: 17:05:57
(UTC+00:00)

Transit 2A - All Passes

Search period start: 16 April 2021 00:00
Search period end: 26 April 2021 00:00
Orbit: 602 x 957 km, 66.7° (Epoch: 15 April)

Date Brightness Start Highest point End Pass type
(mag) Time Alt. Az. Time Alt. Az. Time Alt. Az.
16 Apr - 06:28:00 10° SSW 06:33:44 88° WNW 06:38:51 10° NNE daylight
16 Apr - 17:20:38 10° NE 17:23:42 16° ENE 17:26:57 10° ESE daylight
16 Apr - 19:02:07 10° NW 19:06:31 30° WSW 19:11:19 10° S visible
17 Apr - 05:54:00 10° S 05:59:35 54° ESE 06:04:36 10° NNE daylight
17 Apr - 18:27:28 10° NW 18:32:19 51° WSW 18:37:42 10° S visible
18 Apr - 05:20:20 10° S 05:25:23 32° ESE 05:29:59 10° NE visible
18 Apr - 07:04:54 10° WSW 07:08:12 16° WNW 07:11:20 10° NW daylight
18 Apr - 17:53:11 10° NNW 17:58:10 88° WSW 18:03:44 10° SSE daylight
19 Apr - 04:47:08 10° SSE 04:51:08 20° ESE 04:54:53 10° ENE visible
19 Apr - 06:29:29 10° SW 06:34:08 27° WNW 06:38:24 10° NNW daylight
19 Apr - 17:19:12 10° N 17:24:03 54° ENE 17:29:26 10° SSE daylight
20 Apr - 04:15:11 10° SE 04:16:53 11° ESE 04:18:33 10° E visible
20 Apr - 05:54:42 10° SW 06:00:03 46° WNW 06:04:54 10° N daylight
20 Apr - 16:45:35 10° N 16:49:58 31° ENE 16:54:47 10° SE daylight
20 Apr - 18:29:47 10° WNW 18:33:00 17° WSW 18:36:25 10° SSW visible
21 Apr - 05:20:18 10° SSW 05:25:57 80° WNW 05:31:00 10° NNE visible
21 Apr - 16:12:27 10° NNE 16:15:54 19° ENE 16:19:34 10° ESE daylight
21 Apr - 17:54:26 10° NW 17:58:46 27° WSW 18:03:28 10° S daylight
22 Apr - 04:46:14 10° S 04:51:48 60° ESE 04:56:48 10° NNE visible
22 Apr - 15:41:08 10° ENE 15:41:50 10° ENE 15:42:32 10° E daylight
22 Apr - 17:19:42 10° NW 17:24:33 46° WSW 17:29:56 10° S daylight
23 Apr - 04:12:30 10° S 04:17:37 35° ESE 04:22:16 10° NE visible
23 Apr - 05:57:37 10° WSW 06:00:24 14° WNW 06:03:04 10° NW daylight
23 Apr - 16:45:21 10° NNW 16:50:23 80° WSW 16:56:01 10° SSE daylight
24 Apr - 03:39:12 10° SSE 03:43:23 21° ESE 03:47:17 10° ENE visible
24 Apr - 05:21:58 10° SW 05:26:20 24° WNW 05:30:22 10° NNW visible
24 Apr - 16:11:19 10° N 16:16:16 61° ENE 16:21:47 10° SSE daylight
25 Apr - 03:06:51 10° SE 03:09:08 12° ESE 03:11:19 10° E visible
25 Apr - 04:47:04 10° SW 04:52:16 41° WNW 04:56:57 10° N visible
25 Apr - 15:37:36 10° N 15:42:10 35° ENE 15:47:12 10° SE daylight
25 Apr - 17:22:16 10° WNW 17:25:15 15° WSW 17:28:23 10° SSW daylight
